EW9434 Weather Reports


Display with metric or nautical units.
time (UTC)temp
F
wind
direction
speed
MPH
gust
MPH
rain 1hr
in
rain 24hr
in
rain mn
in
humidity
%
barometer
mb
20260502200138 53 286 4.0 11.0 0.00 0.00 0.00 44 1016.1
20260502200050 52 288 4.0 10.0 0.00 0.00 0.00 41 1016.9
20260502195900 53 286 4.0 12.0 0.00 0.00 0.00 43 1016.1
20260502195135 54 287 4.0 12.0 0.00 0.00 0.00 40 1016.2
20260502194631 55 224 3.0 9.0 0.00 0.00 0.00 40 1016.2
20260502194609 55 223 3.0 9.0 0.00 0.00 0.00 39 1017.0
20260502194106 55 144 4.0 9.0 0.00 0.00 0.00 41 1016.2
20260502193558 55 314 3.0 9.0 0.00 0.00 0.00 40 1016.2
20260502193057 55 284 3.0 8.0 0.00 0.00 0.00 41 1016.2
20260502193025 54 284 3.0 7.0 0.00 0.00 0.00 41 1017.0
20260502192531 55 284 3.0 8.0 0.00 0.00 0.00 41 1016.2
20260502192223 55 282 3.0 8.0 0.00 0.00 0.00 39 1016.4
20260502191514 54 262 3.0 8.0 0.00 0.00 0.00 42 1017.2
20260502191437 55 209 3.0 8.0 0.00 0.00 0.00 41 1016.4
20260502190912 54 289 3.0 11.0 0.00 0.00 0.00 42 1016.3
20260502190346 53 288 4.0 11.0 0.00 0.00 0.00 41 1016.4
20260502190056 53 288 3.0 11.0 0.00 0.00 0.00 39 1017.3
20260502185823 54 289 4.0 10.0 0.00 0.00 0.00 39 1016.5
20260502185543 54 285 3.0 10.0 0.00 0.00 0.00 39 1016.6
20260502184758 54 288 3.0 9.0 0.00 0.00 0.00 42 1016.5
20260502184510 54 288 2.0 9.0 0.00 0.00 0.00 43 1017.3
20260502184250 54 286 3.0 9.0 0.00 0.00 0.00 39 1016.6
20260502183749 55 182 3.0 8.0 0.00 0.00 0.00 42 1016.6
20260502183225 54 284 3.0 10.0 0.00 0.00 0.00 44 1016.6
20260502183043 53 287 2.0 10.0 0.00 0.00 0.00 41 1017.4
20260502182927 53 286 4.0 10.0 0.00 0.00 0.00 43 1016.6
20260502182201 54 288 4.0 11.0 0.00 0.00 0.00 39 1016.7
20260502181637 54 288 4.0 11.0 0.00 0.00 0.00 42 1016.6
20260502181528 53 282 4.0 11.0 0.00 0.00 0.00 40 1017.5
20260502181111 53 288 4.0 15.0 0.00 0.00 0.00 42 1016.7
20260502180549 53 290 3.0 15.0 0.00 0.00 0.00 44 1016.7
20260502170310 52 273 4.0 12.0 0.00 0.00 0.00 46 1017.2
20260502164227 52 288 3.0 8.0 0.00 0.00 0.00 46 1017.3
20260502163712 52 278 3.0 8.0 0.00 0.00 0.00 45 1017.4
20260502163210 52 288 3.0 8.0 0.00 0.00 0.00 47 1017.5
20260502163052 51 278 2.0 8.0 0.00 0.00 0.00 47 1018.2
20260502162710 51 288 4.0 8.0 0.00 0.00 0.00 45 1017.5
20260502162143 51 287 4.0 8.0 0.00 0.00 0.00 46 1017.6
20260502161618 52 286 4.0 8.0 0.00 0.00 0.00 46 1017.6
20260502161548 51 286 3.0 8.0 0.00 0.00 0.00 45 1018.3
20260502161058 52 282 3.0 8.0 0.00 0.00 0.00 47 1017.5
20260502161028 52 273 3.0 9.0 0.00 0.00 0.00 47 1017.7
20260502151840 50 288 4.0 9.0 0.00 0.00 0.00 47 1017.8
20260502151633 49 278 5.0 9.0 0.00 0.00 0.00 48 1018.5
20260502151338 50 288 3.0 5.0 0.00 0.00 0.00 49 1017.7
20260502150821 50 282 3.0 5.0 0.00 0.00 0.00 49 1017.7
20260502150309 50 288 4.0 9.0 0.00 0.00 0.00 48 1017.7
20260502130304 44 291 2.0 5.0 0.00 0.03 0.00 59 1017.5
20260502123723 42 282 1.0 3.0 0.00 0.03 0.00 73 1017.5
20260502123223 41 282 1.0 7.0 0.00 0.03 0.00 73 1017.6
20260502123048 41 282 0.0 6.0 0.00 0.03 0.00 73 1018.2
20260502122659 41 282 2.0 6.0 0.00 0.03 0.00 74 1017.6
20260502122133 41 282 2.0 6.0 0.00 0.03 0.00 74 1017.3
20260502121602 41 282 1.0 4.0 0.00 0.03 0.00 76 1017.4
20260502121510 41 282 1.0 4.0 0.00 0.03 0.00 76 1018.1
20260502121321 41 282 1.0 3.0 0.00 0.03 0.00 76 1017.5
20260502120534 41 282 1.0 5.0 0.00 0.03 0.00 77 1017.4
20260502115524 40 282 1.0 5.0 0.00 0.03 0.00 81 1017.4
20260502114958 39 282 0.0 1.0 0.00 0.03 0.00 82 1017.3
20260502114924 39 282 0.0 2.0 0.00 0.03 0.00 82 1017.2
20260502114504 39 282 0.0 2.0 0.00 0.03 0.00 82 1017.9
20260502113904 39 282 0.0 2.0 0.00 0.03 0.00 82 1017.2
20260502113403 39 282 0.0 0.0 0.00 0.03 0.00 81 1017.2
20260502113002 38 282 0.0 0.0 0.00 0.03 0.00 81 1017.7
20260502112835 39 282 0.0 1.0 0.00 0.03 0.00 82 1017.1
20260502112332 39 282 0.0 1.0 0.00 0.03 0.00 82 1017.1
20260502111806 39 283 0.0 1.0 0.00 0.03 0.00 81 1017.0
20260502111725 39 283 0.0 2.0 0.00 0.03 0.00 80 1016.8
20260502111516 39 283 0.0 1.0 0.00 0.03 0.00 81 1017.6
20260502110736 39 283 0.0 2.0 0.00 0.03 0.00 80 1016.7
20260502110208 39 283 1.0 3.0 0.00 0.03 0.00 80 1016.6
20260502110008 39 282 0.0 3.0 0.00 0.03 0.00 80 1017.2
20260502105707 39 283 1.0 3.0 0.00 0.03 0.00 80 1016.4
20260502105138 39 282 0.0 2.0 0.00 0.03 0.00 81 1016.4
20260502104636 39 282 0.0 1.0 0.00 0.03 0.00 81 1016.6
20260502104606 39 283 0.0 1.0 0.00 0.03 0.00 81 1017.3
20260502104107 39 282 0.0 1.0 0.00 0.03 0.00 81 1016.6
20260502103607 39 282 0.0 1.0 0.00 0.03 0.00 82 1016.6
20260502103102 39 282 0.0 0.0 0.00 0.03 0.00 82 1016.6
20260502103010 39 282 0.0 0.0 0.00 0.03 0.00 82 1017.4
20260502102602 40 282 0.0 1.0 0.00 0.03 0.00 82 1016.6
20260502102034 39 282 0.0 1.0 0.00 0.03 0.00 81 1016.6
20260502101548 39 282 0.0 0.0 0.00 0.03 0.00 81 1017.3
20260502101509 39 282 0.0 1.0 0.00 0.03 0.00 81 1016.6
20260502101206 39 282 0.0 2.0 0.00 0.03 0.00 81 1016.6
20260502100439 39 282 0.0 2.0 0.00 0.03 0.00 81 1016.6
20260502091531 38 282 0.0 2.0 0.00 0.03 0.00 77 1017.2
20260502091426 39 282 1.0 2.0 0.00 0.03 0.00 77 1016.5
20260502090703 39 283 1.0 2.0 0.00 0.03 0.00 77 1016.5
20260502090157 39 283 0.0 2.0 0.00 0.03 0.00 77 1016.6
20260502090132 39 283 0.0 2.0 0.00 0.03 0.00 77 1017.3
20260502071515 42 282 2.0 6.0 0.00 0.03 0.00 70 1017.0
20260502071237 42 282 3.0 7.0 0.00 0.03 0.00 69 1016.3
20260502070737 42 282 3.0 7.0 0.00 0.03 0.00 69 1016.2
20260502070210 43 282 3.0 7.0 0.00 0.03 0.00 69 1016.2
20260502070030 42 282 1.0 6.0 0.00 0.03 0.00 70 1016.9
20260502065905 43 282 2.0 6.0 0.00 0.03 0.00 70 1016.2
20260502065119 43 282 2.0 7.0 0.00 0.03 0.00 70 1016.3
20260502064618 43 273 2.0 9.0 0.00 0.03 0.00 70 1016.3
20260502064606 42 282 2.0 6.0 0.00 0.03 0.00 70 1016.9
20260502064053 43 282 3.0 9.0 0.00 0.03 0.00 70 1016.4
20260502063529 43 282 2.0 9.0 0.00 0.03 0.00 70 1016.5
20260502063034 42 282 2.0 5.0 0.00 0.03 0.00 71 1017.2
20260502063013 43 282 2.0 5.0 0.00 0.03 0.00 71 1016.6
20260502062439 43 282 2.0 5.0 0.00 0.03 0.00 72 1016.6
20260502061913 43 282 2.0 5.0 0.00 0.03 0.00 72 1016.7
20260502061635 43 282 1.0 3.0 0.00 0.03 0.00 73 1016.8
20260502061614 43 282 1.0 4.0 0.00 0.03 0.00 73 1017.4
20260502060848 43 282 2.0 3.0 0.00 0.03 0.00 73 1017.1
20260502060347 43 282 1.0 3.0 0.00 0.03 0.00 72 1017.1
20260502060030 43 282 1.0 2.0 0.00 0.03 0.00 72 1017.6
20260502055846 43 282 1.0 3.0 0.00 0.03 0.00 72 1017.1
20260502055610 44 282 1.0 3.0 0.00 0.03 0.00 72 1017.1
20260502054841 43 282 1.0 2.0 0.00 0.03 0.00 72 1017.1
20260502054550 43 282 1.0 4.0 0.00 0.03 0.00 72 1017.6
20260502054311 43 282 1.0 4.0 0.00 0.03 0.00 72 1017.1
20260502053813 43 282 1.0 3.0 0.00 0.03 0.00 72 1017.0
20260502053250 43 283 1.0 4.0 0.00 0.03 0.00 73 1017.0
20260502053057 43 283 0.0 4.0 0.00 0.03 0.00 73 1017.6
20260502052748 43 283 1.0 4.0 0.00 0.03 0.00 74 1017.0
20260502052229 43 283 1.0 4.0 0.00 0.03 0.00 75 1017.0
20260502051729 43 283 1.0 2.0 0.00 0.03 0.00 76 1017.0
20260502051506 43 283 1.0 2.0 0.00 0.03 0.00 77 1017.5
20260502051225 43 283 1.0 2.0 0.00 0.03 0.00 77 1017.0
20260502050731 43 283 1.0 2.0 0.00 0.03 0.00 79 1017.0
20260502050217 43 283 1.0 2.0 0.00 0.03 0.00 79 1017.0
20260502050040 42 283 1.0 2.0 0.00 0.03 0.00 80 1017.5
20260502045707 43 283 1.0 2.0 0.00 0.03 0.00 80 1017.0
20260502045205 42 283 1.0 2.0 0.00 0.03 0.00 80 1017.0
20260502044643 42 283 0.0 1.0 0.00 0.03 0.00 79 1017.0
20260502044506 42 283 0.0 1.0 0.00 0.03 0.00 79 1017.6
20260502044118 42 283 0.0 1.0 0.00 0.03 0.00 79 1017.1
20260502043551 42 283 0.0 0.0 0.00 0.03 0.00 78 1017.2
20260502043107 42 283 0.0 0.0 0.00 0.03 0.00 78 1017.7
20260502043034 42 283 0.0 0.0 0.00 0.03 0.00 78 1017.2
20260502042532 42 283 0.0 0.0 0.00 0.03 0.00 78 1017.1
20260502042033 43 283 0.0 0.0 0.00 0.03 0.00 77 1017.1
20260502041745 43 283 0.0 0.0 0.00 0.03 0.00 77 1017.1
20260502041558 42 283 0.0 0.0 0.00 0.03 0.00 77 1017.6
20260502040949 43 283 0.0 0.0 0.00 0.03 0.00 77 1017.1
20260502040428 43 283 0.0 0.0 0.00 0.03 0.00 77 1016.8
20260502040051 43 283 0.0 1.0 0.00 0.03 0.00 77 1017.4
20260502035921 44 283 0.0 1.0 0.00 0.03 0.03 77 1017.0
20260502035415 44 283 0.0 1.0 0.00 0.03 0.03 76 1017.0
20260502035143 44 283 0.0 1.0 0.00 0.03 0.03 76 1017.0
20260502034540 44 283 0.0 1.0 0.00 0.03 0.03 76 1017.5
20260502034347 44 283 0.0 1.0 0.00 0.03 0.03 76 1017.1
20260502034102 44 283 0.0 1.0 0.00 0.03 0.03 75 1017.1
20260502033341 45 283 1.0 2.0 0.00 0.03 0.03 75 1017.1
20260502033056 44 283 0.0 2.0 0.00 0.03 0.03 75 1017.6
20260502032817 45 283 1.0 2.0 0.00 0.03 0.03 75 1017.0
20260502032246 45 283 1.0 2.0 0.00 0.03 0.03 74 1017.1
20260502031744 45 283 1.0 2.0 0.00 0.03 0.03 74 1017.1
20260502031519 45 283 0.0 2.0 0.00 0.03 0.03 74 1017.5
20260502031219 45 283 1.0 3.0 0.00 0.03 0.03 73 1017.0
20260502030653 45 283 1.0 3.0 0.00 0.03 0.03 73 1016.8
20260502030345 46 283 1.0 3.0 0.00 0.03 0.03 73 1016.8
20260502030031 45 283 1.0 3.0 0.00 0.03 0.03 73 1017.3
20260502025621 46 283 1.0 3.0 0.00 0.03 0.03 72 1016.8
20260502025115 46 283 1.0 2.0 0.00 0.03 0.03 72 1016.7
20260502024614 46 283 1.0 3.0 0.00 0.03 0.03 72 1016.7
20260502024606 45 283 1.0 3.0 0.00 0.03 0.03 72 1017.3
20260502024109 46 284 1.0 3.0 0.00 0.03 0.03 71 1016.7
20260502023541 46 284 1.0 2.0 0.00 0.03 0.03 70 1016.7
20260502023235 46 284 1.0 2.0 0.00 0.03 0.03 70 1016.6
20260502023055 46 284 0.0 2.0 0.00 0.03 0.03 70 1017.2
20260502022447 47 288 0.0 2.0 0.00 0.03 0.03 69 1016.5
20260502021947 47 283 0.0 2.0 0.00 0.03 0.03 68 1016.5
20260502021550 46 283 0.0 2.0 0.00 0.03 0.03 68 1017.1
20260502021416 47 283 0.0 2.0 0.00 0.03 0.03 68 1016.5
20260502020915 47 283 0.0 1.0 0.00 0.03 0.03 68 1016.4
20260502020349 47 283 1.0 2.0 0.00 0.03 0.03 69 1016.5
20260502020004 47 283 0.0 2.0 0.00 0.03 0.03 68 1017.0
20260502015845 48 283 1.0 2.0 0.00 0.03 0.03 68 1016.3
20260502015345 48 283 1.0 2.0 0.00 0.03 0.03 67 1016.2
20260502014816 48 283 0.0 2.0 0.00 0.03 0.03 66 1016.1
20260502014502 47 283 0.0 3.0 0.00 0.03 0.03 66 1016.6
20260502014314 48 283 1.0 3.0 0.00 0.03 0.03 66 1016.0
20260502013747 48 283 1.0 3.0 0.00 0.03 0.03 66 1015.9
20260502013223 48 283 1.0 3.0 0.00 0.03 0.03 66 1015.9
20260502013047 47 283 0.0 3.0 0.00 0.03 0.03 66 1016.5
20260502012655 48 283 1.0 3.0 0.00 0.03 0.03 66 1015.8
20260502012128 48 283 0.0 2.0 0.00 0.03 0.03 66 1015.8
20260502011624 48 283 1.0 2.0 0.00 0.03 0.03 64 1015.8
20260502011601 47 283 0.0 2.0 0.00 0.03 0.03 64 1016.3
20260502011125 48 283 1.0 3.0 0.00 0.03 0.03 65 1015.6
20260502010823 48 283 1.0 3.0 0.00 0.03 0.03 65 1015.4
20260502010032 48 283 1.0 2.0 0.00 0.03 0.03 66 1015.3
20260502010002 47 283 1.0 2.0 0.00 0.03 0.03 66 1015.8
20260502005503 48 283 0.0 1.0 0.00 0.03 0.03 65 1015.3
20260502004936 48 282 0.0 1.0 0.00 0.03 0.03 65 1015.2
20260502004510 48 283 0.0 1.0 0.00 0.03 0.03 65 1015.6
20260502004429 49 282 0.0 1.0 0.00 0.03 0.03 65 1015.0
20260502004128 49 283 0.0 1.0 0.00 0.03 0.03 65 1014.9
20260502003335 49 283 0.0 1.0 0.00 0.03 0.03 64 1014.7
20260502003022 49 282 0.0 1.0 0.00 0.03 0.03 63 1015.1
20260502002835 50 282 0.0 1.0 0.00 0.03 0.03 63 1014.5
20260502002307 50 282 0.0 2.0 0.00 0.03 0.03 64 1014.4
20260502001737 51 283 1.0 2.0 0.00 0.03 0.03 61 1014.3
20260502001535 50 283 0.0 2.0 0.00 0.03 0.03 61 1014.9
20260502001235 51 284 1.0 2.0 0.00 0.03 0.03 60 1014.4
20260502000948 51 286 1.0 4.0 0.00 0.03 0.03 60 1014.5
20260502000229 52 287 1.0 4.0 0.00 0.03 0.03 58 1014.6
20260502000050 51 288 2.0 4.0 0.00 0.03 0.03 58 1015.1
20260501235950 52 283 1.0 3.0 0.00 0.03 0.03 59 1014.7
20260501235222 52 278 1.0 3.0 0.00 0.03 0.03 59 1014.8
20260501234657 52 282 1.0 3.0 0.00 0.03 0.03 58 1014.7
20260501234517 52 282 1.0 3.0 0.00 0.03 0.03 58 1015.2
20260501234129 53 282 2.0 4.0 0.00 0.03 0.03 56 1014.5
20260501233627 53 282 2.0 5.0 0.00 0.03 0.03 57 1014.6
20260501233100 53 288 2.0 5.0 0.00 0.03 0.03 57 1014.6
20260501233008 53 288 1.0 5.0 0.00 0.03 0.03 56 1015.1
20260501232559 53 282 2.0 7.0 0.00 0.03 0.03 57 1014.6
20260501232030 53 282 2.0 7.0 0.00 0.03 0.03 57 1014.5
20260501231528 53 282 1.0 3.0 0.00 0.03 0.03 59 1014.6
20260501231000 53 282 2.0 4.0 0.00 0.03 0.03 57 1014.6
20260501230457 53 290 2.0 7.0 0.00 0.03 0.03 56 1014.6
20260501230100 53 282 1.0 6.0 0.00 0.03 0.03 55 1015.0
20260501225928 54 282 2.0 7.0 0.00 0.03 0.03 56 1014.5
20260501225429 54 282 3.0 8.0 0.00 0.03 0.03 56 1014.4
20260501224910 54 282 3.0 8.0 0.00 0.03 0.03 54 1014.4
20260501224553 53 290 3.0 8.0 0.00 0.03 0.03 52 1014.9
20260501224414 54 288 3.0 9.0 0.00 0.03 0.03 51 1014.3
20260501223844 53 290 3.0 9.0 0.00 0.03 0.03 51 1014.3
20260501223343 53 287 3.0 9.0 0.00 0.03 0.03 52 1014.4
20260501223102 53 287 2.0 9.0 0.00 0.03 0.03 53 1014.9
20260501222814 54 286 2.0 9.0 0.00 0.03 0.03 50 1014.5
20260501222312 54 311 3.0 9.0 0.00 0.03 0.03 56 1014.5
20260501221809 53 291 3.0 9.0 0.00 0.03 0.03 56 1014.4
20260501221607 52 273 3.0 9.0 0.00 0.03 0.03 54 1014.9
20260501221308 53 273 3.0 8.0 0.00 0.03 0.03 56 1014.5
20260501220740 53 273 4.0 11.0 0.00 0.03 0.03 51 1014.5
20260501220239 53 286 4.0 11.0 0.00 0.03 0.03 53 1014.4
20260501220058 53 288 4.0 11.0 0.00 0.03 0.03 54 1014.9
20260501215935 53 282 3.0 9.0 0.00 0.03 0.03 53 1014.4
20260501215144 54 288 3.0 9.0 0.00 0.03 0.03 54 1014.5
20260501214904 54 288 3.0 9.0 0.00 0.03 0.03 53 1014.5
20260501214502 54 288 3.0 9.0 0.00 0.03 0.03 54 1015.0
20260501214126 54 197 3.0 8.0 0.00 0.03 0.03 56 1014.4
20260501213626 54 74 4.0 9.0 0.00 0.03 0.03 58 1014.4
20260501213615 53 288 3.0 9.0 0.00 0.03 0.03 57 1014.4
20260501213137 53 289 3.0 9.0 0.00 0.03 0.03 57 1014.9
20260501212625 53 288 3.0 8.0 0.00 0.03 0.03 57 1014.4
20260501212059 53 288 3.0 8.0 0.00 0.03 0.03 57 1014.6
20260501211559 53 288 3.0 7.0 0.00 0.03 0.03 58 1014.5
20260501211526 52 288 2.0 6.0 0.00 0.03 0.03 57 1015.0
20260501211031 53 282 3.0 8.0 0.00 0.03 0.03 59 1014.5
20260501210529 53 273 4.0 8.0 0.00 0.03 0.03 58 1014.4
20260501210018 53 288 4.0 8.0 0.00 0.03 0.03 57 1014.9
20260501210006 53 288 3.0 10.0 0.00 0.03 0.03 57 1014.4
20260501205504 53 283 3.0 10.0 0.00 0.03 0.03 60 1014.3
20260501205155 53 282 4.0 10.0 0.00 0.03 0.03 60 1014.4
20260501204631 52 288 2.0 10.0 0.00 0.03 0.03 62 1014.9
20260501204428 52 273 3.0 10.0 0.00 0.03 0.03 62 1014.5
20260501203930 52 287 4.0 12.0 0.00 0.03 0.03 63 1014.5
20260501203402 53 288 4.0 12.0 0.00 0.03 0.03 61 1014.5
20260501203023 52 288 3.0 10.0 0.00 0.03 0.03 63 1014.9
20260501202837 53 288 4.0 10.0 0.00 0.03 0.03 63 1014.4
20260501202312 53 288 3.0 11.0 0.00 0.03 0.03 63 1014.3
20260501201753 52 284 4.0 9.0 0.00 0.03 0.03 62 1014.3
20260501201517 52 273 2.0 9.0 0.00 0.03 0.03 62 1014.8
20260501201229 53 273 4.0 9.0 0.00 0.03 0.03 61 1014.3
20260501200725 53 273 4.0 8.0 0.00 0.03 0.03 61 1014.3